Regional Weather Roundup
Issued by NWS Grand Forks, ND

Home | Current Version | Previous Version | Text Only | Print | Product List | Glossary Off
Versions: 1 2 3 4 5 6 7 8 9 10 11 12 13 14 15 16 17 18 19 20 21 22 23 24 25 26 27 28 29 30 31 32 33 34 35 36 37 38 39 40 41 42 43 44 45 46 47 48 49 50

000
ASUS43 KFGF 220810
RWRFGF
PRAIRIE TO PINES  WEATHER ROUNDUP
NATIONAL WEATHER SERVICE EASTERN NORTH DAKOTA/GRAND FORKS ND
300 AM CDT MON SEP 22 2014

 **SATELLITE DATA USED TO AUGMENT SKY COVER AT AUTOMATED STATIONS**
 *****  WEATHER ACROSS EASTERN NORTH DAKOTA  *****

CITY           SKY/WX    TMP DP  RH WIND       PRES   REMARKS
GRAND FORKS    CLEAR     49  47  93 S8        30.14F
GRAND FRKS AFB CLEAR     47  47  99 SW7       30.15F
GRAND FRKS NWS   N/A     48 N/A N/A S6          N/A
DEVILS LAKE    CLEAR     52  43  71 CALM      30.14S
FARGO          CLEAR     51  47  86 S8        30.19F
WAHPETON ARPT  SUNNY     45  43  93 SE5       30.21F
$$

 ***** WEATHER ACROSS CENTRAL AND WESTERN NORTH DAKOTA  *****

CITY           SKY/WX    TMP DP  RH WIND       PRES   REMARKS
BISMARCK       CLEAR     46  42  86 NE5       30.19F
MINOT          CLEAR     56  41  57 S3        30.12F
JAMESTOWN      CLEAR     43  40  89 CALM      30.18F
MINOT AFB      CLEAR     49  43  78 SW8       30.12S
GARRISON         N/A     49  44  83 CALM      30.15F
WILLISTON      CLEAR     43  36  76 CALM      30.10F
DICKINSON      CLEAR     47  38  71 S10       30.14F
HETTINGER      CLEAR     50  39  66 SE8       30.18F
$$

 *****  OTHER AIRPORT OBSERVATIONS IN OUR AREA  *****

CITY           SKY/WX    TMP DP  RH WIND       PRES   REMARKS
WALHALLA         N/A     50  46  87 CALM      30.12S
GRAFTON AIRPOR FAIR      45  45 100 S5        30.14S
VALLEY CITY AR FAIR      43  43 100 S6        30.19S
CANDO          FAIR      45  41  87 SW3       30.14F
CAVALIER APRT  FAIR      46  45  93 CALM      30.12F
GWINNER        SUNNY     46  46 100 CALM      30.21F
ROLLA          FAIR      48  45  87 SW10      30.14F
 ***** THE ABOVE OBSERVATIONS ARE NON NWS ARE NOT QUALITY
       CONTROLLED AND MAY MIS-REPORT RAIN FOR SNOW...
$$

  *****  WEATHER ACROSS NORTHERN MINNESOTA  *****

CITY           SKY/WX    TMP DP  RH WIND       PRES   REMARKS
FLAG ISLAND    CLEAR     52  46  82 SW16      30.09F
WARROAD        CLEAR     50  46  87 SW9       30.14S
ROSEAU         CLEAR     52  46  82 SW9       30.14S
HALLOCK        CLEAR     48  46  93 S8        30.13S
THF RVR FALLS  CLEAR     46  45  93 S7        30.16F
BAUDETTE       CLEAR     46  45  96 SW5       30.13F
WASKISH        CLEAR     45  43  93 CALM      30.16S
CROOKSTON      CLEAR     46  46 100 S7        30.17F
STEPHEN NDAWN    N/A     48  46  93 SW7         N/A
GREENBUSH NDAW   N/A     50  48  93 S7          N/A
$$
  *****  WEATHER ACROSS CENTRAL AND WEST MINNESOTA  *****

CITY           SKY/WX    TMP DP  RH WIND       PRES   REMARKS
FOSSTON        CLEAR     43  41  93 CALM      30.19F
BEMIDJI        CLEAR     45  44  95 SW3       30.18F
PARK RAPIDS    CLEAR     43  41  93 CALM      30.20F
ELBOW LAKE     FAIR      46  45  96 SE6       30.22F
WADENA         CLEAR     41  39  93 CALM      30.21F
DETROIT LAKES  CLEAR     46  46 100 S3        30.21F
MOORHEAD       CLEAR     50  50 100 S9        30.20F
FERGUS FALLS   CLEAR     46  45  93 S5        30.23S
MORRIS MN      CLEAR     45  45 100 S3        30.22F FOG
STAPLES        CLEAR     43  43 100 CALM      30.21F FOG
$$
  *****  WEATHER ELSEWHERE ACROSS MINNESOTA  *****

CITY           SKY/WX    TMP DP  RH WIND       PRES   REMARKS
DULUTH         MOCLDY    49  45  86 W7        30.17F
INTRNTL FALLS  CLEAR     42  41  96 SW3       30.14S
ELY            CLEAR     48  46  93 SW6       30.14F
CLOQUET        CLEAR     46  45  93 W6        30.18F
WHEATON        CLEAR     46  45  93 S5        30.23F
BRAINERD       CLEAR     41  41 100 S3        30.22S FOG
HIBBING        FOG       40  38  93 CALM      30.17S VSB 1/4
ALEXANDRIA     CLEAR     46  45  96 SW3       30.24S
SAINT CLOUD    CLEAR     47  44  90 CALM      30.22F FOG
MINNEAPOLIS    CLEAR     52  48  86 SW3       30.22F
$$

  *****  WEATHER ACROSS SOUTH DAKOTA  *****

CITY           SKY/WX    TMP DP  RH WIND       PRES   REMARKS
SIOUX FALLS    CLEAR     46  44  93 CALM      30.28R
BROOKINGS      NOT AVBL
WATERTOWN      CLEAR     45  43  93 SE5       30.24F
HURON          CLEAR     50  44  80 S6        30.24F
SISSETON         N/A     45  44  97 SW6       30.21S
ABERDEEN       CLEAR     42  40  92 S7        30.23F
MITCHELL       CLEAR     51  45  79 S6        30.27S
PIERRE         CLEAR     47  42  83 SE7       30.21F
MOBRIDGE       CLEAR     47  46  97 SE7       30.19S
RAPID CITY     MOCLDY    52  38  58 SE12      30.19F
$$

  *****  SOME WEATHER IN NEARBY STATES *****

CITY           SKY/WX    TMP DP  RH WIND       PRES   REMARKS
GLASGOW MT     CLEAR     52  35  52 E15       30.02F
GREAT FALLS MT CLEAR     61  44  53 S9        29.97F
CHEYENNE WY    MOCLDY    52  41  66 S9        30.30S
SCOTTSBLUFF NE PTCLDY    56  44  64 E12       30.23F
OMAHA NE       CLEAR     51  49  92 CALM      30.30R
DES MOINES IA  CLEAR     52  47  83 N3        30.26S
DAVENPORT IA   CLEAR     45  41  86 N7        30.22R
CHICAGO IL     PTCLDY    49  42  77 N8        30.18R
EAU CLAIRE WI  CLEAR     45  43  93 SW3       30.20S
LA CROSSE WI   CLEAR     47  45  93 SE6       30.22S
$$

  *****  SOME NATIONAL WEATHER *****

CITY           SKY/WX    TMP DP  RH WIND       PRES   REMARKS
LA GUARDIA NY  PTCLDY    68  57  68 W12G17    29.67R
RALEIGH NC     MOCLDY    69  65  86 CALM      29.90R
ATLANTA GA     LGT RAIN  71  66  84 NW9       29.98R
NEW ORLEANS LA PTCLDY    74  69  85 CALM      30.00F
OKLAHOMA CITY  CLEAR     65  50  58 NE7       30.22S
ALBUQUERQUE NM PTCLDY    67  54  63 E16       30.30S
SALT LAKE CITY LGT RAIN  62  59  90 E3        30.14S
LOS ANGELES CA CLEAR     67  63  87 S3        29.96R
BOISE ID       CLOUDY    66  53  63 SE8       30.03S
SEATTLE WA     MOCLDY    62  56  80 S8        29.97S
$$

*** WEATHER ACROSS MANITOBA...SASKATCHEWAN AND ONTARIO ***
                ***ONTARIO***

CITY           SKY/WX    TMP DP  RH WIND       PRES   REMARKS
GERALDTON      CLEAR     34  32  93 SW2       30.02F
THUNDER BAY    CLOUDY    41  41 100 W2        30.08F
SIOUX LOOKOUT  CLEAR     50  48  93 W6        30.06F
TORONTO        LGT RAIN  48  45  87 NW18G26   29.87R
BIG TROUT LK   CLOUDY    50  45  81 W8        29.83F
PICKLE LAKE    NOT AVBL
DRYDEN         CLEAR     46  46 100 SW8       30.08F
KENORA         CLEAR     50  48  93 W9        30.10F
$$
                *** MANITOBA***

CITY           SKY/WX    TMP DP  RH WIND       PRES   REMARKS
BRANDON        CLEAR     45  43  93 W6        30.10S
DAUPHIN        CLEAR     57  45  62 W8        30.02S
ISLAND LAKE    PTCLDY    52  50  93 CALM      29.85F
PILOT MOUND    NOT AVBL
THE PAS        CLEAR     59  48  67 SW10      29.88R
THOMPSON       PTCLDY    45  45 100 W3        29.76S
WINNIPEG       CLEAR     52  46  82 SW10      30.08F
LYNN LAKE      CLEAR     54  50  87 NW5       29.79R
CHURCHILL      CLOUDY    41  39  93 E13       29.78R
GILLAM         CLOUDY    52  50  93 SW6       29.73R
$$
                ***SASKATCHEWAN***

CITY           SKY/WX    TMP DP  RH WIND       PRES   REMARKS
ESTEVAN        CLEAR     46  41  81 S2        30.10F
KINDERSLEY     CLEAR     50  43  76 S9        29.92F
LLOYDMINSTER   CLEAR     54  43  66 S10       29.85F
PRINCE ALBERT  CLEAR     43  39  87 S3        29.94S
REGINA         CLEAR     46  41  81 SE8       30.05F
YORKTON        CLEAR     52  43  71 S9        30.04S
N. BATTLEFORD  CLEAR     57  43  58 S3        29.93F
LA RONGE       CLEAR     55  46  71 SW5       29.87S
SASKATOON      CLEAR     52  43  71 S7        29.97F
SWIFT CURRENT  CLEAR     55  39  54 S20G25    29.96F
$$
NOTE: THESE ARE AUTOMATED STATIONS WITH LIMITED QUALITY CONTROL
      "FAIR" INDICATES FEW OR NO CLOUDS BELOW 12,000 FEET WITH NO
      SIGNIFICANT WEATHER AND/OR OBSTRUCTIONS TO VISIBILITY.
      SKY/WX - SKY CONDITION AND SIGNIFICANT WEATHER.
      TMP - AIR TEMPERATURE.    DP   - DEWPOINT TEMPERATURE.
      RH  - RELATIVE HUMIDITY.  PRES - PRESSURE.
      HX  - HEAT INDEX.         WCI  - WIND CHILL INDEX.
$



USA.gov is the U.S. government's official web portal to all federal, state and local government web resources and services.